• Join FlightAware (Why Join?)
  • Login
  • US Flag 
08:12AM EDT


 

Airport Tracker/Info


-or-


 

Live Flight TrackerFlight Track Log ✈ NKS647 ✈ 12-May-2014 ✈ KIAG - KFLL

Flight Track Log - Related Links

Times and Time Zones

All times are in EDT time to prevent confusion due to time zone crossing. See the NKS647 flight status page for this flight to view local times or setup timezone preferences in your user account.

Time Position Orientation Groundspeed Altitude Reporting Facility
EDT Latitude Longitude Course Direction KTS MPH feet Rate Location/Type
02:50AM 43.1037 -78.9851 224° Southwest 163 188 2,000  Level FlightAware ADS-B (CYYZ)
02:50AM 43.1005 -78.9882 216° Southwest 167 192 2,200 2,160 Climbing FlightAware ADS-B (CYYZ)
02:50AM 43.0913 -78.9965 214° Southwest 174 200 2,700 1,920 Climbing FlightAware ADS-B (CYYZ)
02:51AM 43.0832 -79.0023 203° Southwest 184 212 3,000 1,500 Climbing FlightAware ADS-B (CYYZ)
02:51AM 43.0791 -79.0035 193° South 192 221 3,100 1,320 Climbing FlightAware ADS-B (CYYZ)
02:51AM 43.0746 -79.0037 183° South 199 229 3,200 1,320 Climbing FlightAware ADS-B (CYYZ)
02:51AM 43.0704 -79.0032 175° South 209 241 3,300 600 Climbing FlightAware ADS-B (CYYZ)
02:51AM 43.0652 -79.0020 170° South 221 254 3,300 1,140 Level FlightAware ADS-B (CYYZ)
02:51AM 43.0481 -78.9971 167° South 250 288 3,700 1,980 Climbing FlightAware ADS-B (CYYZ)
02:51AM 43.0305 -78.9912 165° South 266 306 4,300 2,820 Climbing FlightAware ADS-B (CYYZ)
02:52AM 43.0297 -78.9909 166° South 270 311 4,600 3,180 Climbing FlightAware ADS-B (CYKZ)
02:52AM 43.0131 -78.9851 165° South 273 314 5,100 3,000 Climbing FlightAware ADS-B (CYYZ)
02:52AM 42.9927 -78.9782 166° South 281 323 5,900 3,480 Climbing FlightAware ADS-B (CYYZ)
02:52AM 42.9745 -78.9723 166° South 279 321 6,900 4,200 Climbing FlightAware ADS-B (CYYZ)
02:53AM 42.9552 -78.9663 167° South 274 315 8,000 3,780 Climbing FlightAware ADS-B (CYYZ)
02:53AM 42.9355 -78.9606 169° South 278 320 8,800 3,000 Climbing FlightAware ADS-B (CYYZ)
02:53AM 42.9168 -78.9598 183° South 279 321 9,500 2,280 Climbing FlightAware ADS-B (CYYZ)
02:54AM 42.8705 -78.9627 183° South 306 352 10,700 1,440 Climbing FlightAware ADS-B (CYYZ)
02:54AM 42.8235 -78.9652 183° South 350 403 11,100 1,500 Climbing FlightAware ADS-B (CYYZ)
02:55AM 42.7737 -78.9675 183° South 367 422 12,200 2,580 Climbing FlightAware ADS-B (CYYZ)
02:55AM 42.7221 -78.9699 183° South 370 426 13,700 3,000 Climbing FlightAware ADS-B (CYYZ)
02:56AM 42.6714 -78.9731 184° South 367 422 15,200 2,760 Climbing FlightAware ADS-B (CYYZ)
02:56AM 42.6197 -78.9789 185° South 369 425 16,500 2,520 Climbing FlightAware ADS-B (CYYZ)
02:57AM 42.5711 -78.9843 185° South 370 426 17,700 2,160 Climbing FlightAware ADS-B (CYYZ)
02:57AM 42.5178 -78.9897 185° South 383 441 18,700 1,860 Climbing FlightAware ADS-B (CYYZ)
02:58AM 42.4645 -78.9948 185° South 390 449 19,600 1,680 Climbing FlightAware ADS-B (CYYZ)
02:58AM 42.4078 -79.0002 184° South 402 463 20,400 1,620 Climbing FlightAware ADS-B (CYYZ)
02:59AM 42.3517 -79.0053 185° South 410 472 21,300 1,560 Climbing FlightAware ADS-B (CYYZ)
02:59AM 42.2940 -79.0109 184° South 418 481 22,000 1,620 Climbing FlightAware ADS-B (CYYZ)
03:00AM 42.2364 -79.0163 185° South 422 486 22,900 1,560 Climbing FlightAware ADS-B (CYYZ)
03:00AM 42.1768 -79.0219 185° South 431 496 23,600 1,380 Climbing FlightAware ADS-B (CYYZ)
03:00AM 42.1515 -79.0244 184° South 427 491 23,900 1,800 Climbing FlightAware ADS-B (CYKZ)
03:01AM 42.1170 -79.0277 184° South 433 498 24,500 1,980 Climbing FlightAware ADS-B (CYYZ)
03:01AM 42.0802 -79.0312 184° South 432 497 25,100 1,560 Climbing FlightAware ADS-B (CYKZ)
03:01AM 42.0586 -79.0332 185° South 434 499 25,300 1,020 Climbing FlightAware ADS-B (CYYZ)
03:02AM 41.9989 -79.0389 185° South 443 510 25,800 960 Climbing FlightAware ADS-B (CYYZ)
03:02AM 41.9328 -79.0451 185° South 455 524 26,300 900 Climbing FlightAware ADS-B (CYYZ)
03:02AM 41.9071 -79.0476 184° South 452 520 26,500 960 Climbing FlightAware ADS-B (KWWD)
03:03AM 41.8704 -79.0511 185° South 464 534 26,800 1,260 Climbing FlightAware ADS-B (CYYZ)
03:03AM 41.8045 -79.0572 184° South 467 537 27,500 1,620 Climbing FlightAware ADS-B (CYYZ)
03:04AM 41.7431 -79.0629 184° South 463 533 28,400 1,380 Climbing FlightAware ADS-B (CYYZ)
03:04AM 41.6765 -79.0691 185° South 469 540 28,900 840 Climbing FlightAware ADS-B (CYYZ)
03:05AM 41.6104 -79.0754 184° South 476 548 29,300 960 Climbing FlightAware ADS-B (CYYZ)
03:05AM 41.5446 -79.0814 184° South 479 551 29,900 1,200 Climbing FlightAware ADS-B (CYYZ)
03:06AM 41.4774 -79.0877 185° South 481 554 30,500 1,500 Climbing FlightAware ADS-B (CYYZ)
03:06AM 41.4145 -79.0935 185° South 472 543 31,400 1,800 Climbing FlightAware ADS-B (CYYZ)
03:06AM 41.3886 -79.0959 184° South 472 543 31,800 1,620 Climbing FlightAware ADS-B (CYKZ)
03:07AM 41.3509 -79.0994 185° South 470 541 32,200 1,440 Climbing FlightAware ADS-B (CYYZ)
03:07AM 41.3151 -79.1028 184° South 465 535 32,600 1,920 Climbing FlightAware ADS-B (CYKZ)
03:07AM 41.2821 -79.1057 184° South 462 532 33,200 1,740 Climbing FlightAware ADS-B (CYYZ)
03:08AM 41.2217 -79.1112 185° South 458 527 33,900 1,440 Climbing FlightAware ADS-B (CYYZ)
03:08AM 41.2143 -79.1119 184° South 457 526 34,000 1,740 Climbing FlightAware ADS-B (CYKZ)
03:08AM 41.1583 -79.1170 184° South 449 517 34,800 1,620 Climbing FlightAware ADS-B (CYYZ)
03:08AM 41.1829 -79.1147 184° South 448 516 34,900 600 Climbing FlightAware ADS-B (CYKZ)
03:09AM 41.0963 -79.1228 185° South 452 520 35,100 600 Climbing FlightAware ADS-B (CYYZ)
03:09AM 41.0674 -79.1255 184° South 469 540 35,300 960 Climbing FlightAware ADS-B (KWWD)
03:09AM 41.0347 -79.1285 185° South 455 524 35,600 1,080 Climbing FlightAware ADS-B (CYYZ)
03:09AM 41.0000 -79.1317 184° South 454 522 35,900 780 Climbing FlightAware ADS-B (KWWD)
03:10AM 40.9720 -79.1343 184° South 449 517 36,000 120 Climbing FlightAware ADS-B (CYYZ)
03:10AM 40.9074 -79.1402 185° South 455 524 36,000  Level FlightAware ADS-B (CYYZ)
03:11AM 40.8420 -79.1463 184° South 465 535 36,000  Level FlightAware ADS-B (CYYZ)
03:11AM 40.7777 -79.1521 184° South 465 535 36,000  Level FlightAware ADS-B (CYYZ)
03:12AM 40.7183 -79.1574 184° South 463 533 36,000  Level FlightAware ADS-B (CYYZ)
03:12AM 40.6555 -79.1631 184° South 462 532 36,000  Level FlightAware ADS-B (CYYZ)
03:13AM 40.5876 -79.1692 184° South 461 531 36,000  Level FlightAware ADS-B (CYYZ)
03:13AM 40.5238 -79.1749 184° South 461 531 36,000  Level FlightAware ADS-B (CYYZ)
03:14AM 40.4585 -79.1807 184° South 461 531 36,000  Level FlightAware ADS-B (CYYZ)
03:14AM 40.3940 -79.1865 184° South 462 532 36,000  Level FlightAware ADS-B (CYYZ)
03:15AM 40.3325 -79.1921 184° South 463 533 36,000  Level FlightAware ADS-B (CYYZ)
03:15AM 40.2670 -79.1981 184° South 463 533 36,000  Level FlightAware ADS-B (CYYZ)
03:16AM 40.2105 -79.2032 184° South 455 524 36,000  Level FlightAware ADS-B (KWWD)
03:16AM 40.2115 -79.2031 184° South 463 533 36,000  Level FlightAware ADS-B (CYYZ)
03:16AM 40.1490 -79.2087 184° South 464 534 36,000  Level FlightAware ADS-B (KWWD)
03:17AM 40.0750 -79.2153 184° South 468 539 36,000  Level FlightAware ADS-B (CYYZ)
03:17AM 40.0599 -79.2167 184° South 466 536 36,000  Level FlightAware ADS-B (KWWD)
03:17AM 40.0093 -79.2211 184° South 469 540 36,000  Level FlightAware ADS-B (CYYZ)
03:17AM 39.9871 -79.2231 184° South 470 541 36,000  Level FlightAware ADS-B (KWWD)
03:18AM 39.9582 -79.2257 184° South 469 540 36,000  Level FlightAware ADS-B (CYYZ)
03:18AM 39.8459 -79.2355 184° South 467 537 36,000  Level FlightAware ADS-B (KWWD)
03:19AM 39.7396 -79.2449 184° South 454 522 36,000  Level FlightAware ADS-B (KWWD)
03:20AM 39.6549 -79.2524 184° South 453 521 36,000  Level FlightAware ADS-B (KWWD)
03:23AM 39.2147 -79.2910 184° South 450 518 36,000  Level FlightAware ADS-B (KWWD)
03:25AM 39.0621 -79.3042 184° South 450 518 36,000  Level FlightAware ADS-B (KWWD)
03:27AM 38.7953 -79.3271 184° South 463 533 36,000  Level FlightAware ADS-B (KDCA)
03:27AM 38.7105 -79.3344 184° South 461 531 36,000  Level FlightAware ADS-B (KDCA)
03:28AM 38.6270 -79.3416 184° South 462 532 36,000  Level FlightAware ADS-B (KDCA)
03:29AM 38.5420 -79.3488 184° South 458 527 36,000  Level FlightAware ADS-B (KDCA)
03:29AM 38.4558 -79.3561 184° South 457 526 36,000  Level FlightAware ADS-B (KDCA)
03:30AM 38.3704 -79.3635 184° South 457 526 36,000  Level FlightAware ADS-B (KDCA)
03:31AM 38.2890 -79.3703 184° South 455 524 36,000  Level FlightAware ADS-B (KDCA)
03:32AM 38.1618 -79.3811 184° South 459 528 36,000  Level FlightAware ADS-B (KDCA)
03:32AM 38.0751 -79.3883 184° South 457 526 36,000  Level FlightAware ADS-B (KDCA)
03:33AM 37.9924 -79.3953 184° South 460 529 36,000  Level FlightAware ADS-B (KDCA)
03:34AM 37.9055 -79.4025 184° South 454 522 36,000  Level FlightAware ADS-B (KDCA)
03:34AM 37.8246 -79.4094 184° South 455 524 36,000  Level FlightAware ADS-B (KDCA)
03:35AM 37.7374 -79.4166 184° South 455 524 36,000  Level FlightAware ADS-B (KDCA)
03:36AM 37.6559 -79.4233 184° South 454 522 36,000  Level FlightAware ADS-B (KDCA)
03:36AM 37.5805 -79.4296 184° South 459 528 36,000  Level FlightAware ADS-B (KDCA)
03:37AM 37.5108 -79.4354 184° South 451 519 36,000  Level FlightAware ADS-B (KWWD)
03:37AM 37.4458 -79.4408 184° South 452 520 36,000  Level FlightAware ADS-B (KWWD)
03:38AM 37.3685 -79.4473 184° South 458 527 36,000  Level FlightAware ADS-B (KDCA)
03:39AM 37.2728 -79.4551 184° South 451 519 36,000  Level FlightAware ADS-B (KDCA)
03:40AM 37.1194 -79.4677 184° South 448 516 36,000  Level FlightAware ADS-B (KDCA)
03:41AM 36.9911 -79.4782 184° South 454 522 36,000  Level FlightAware ADS-B (KDCA)
03:41AM 36.9098 -79.4848 184° South 455 524 36,000  Level FlightAware ADS-B (KDCA)
03:42AM 36.8472 -79.4899 184° South 453 521 36,000  Level FlightAware ADS-B (KDCA)
03:46AM 36.3135 -79.5332 184° South 459 528 36,000  Level FlightAware ADS-B (KINT)
03:47AM 36.2446 -79.5387 184° South 457 526 36,000  Level FlightAware ADS-B (KINT)
03:48AM 36.1628 -79.5452 184° South 453 521 36,000  Level FlightAware ADS-B (KINT)
03:48AM 36.0586 -79.5535 184° South 452 520 36,000  Level FlightAware ADS-B (KINT)
03:49AM 36.0076 -79.5575 184° South 456 525 36,000  Level FlightAware ADS-B (KINT)
03:50AM 35.8901 -79.5670 184° South 456 525 36,000  Level FlightAware ADS-B (KINT)
03:50AM 35.8055 -79.5737 184° South 454 522 36,000  Level FlightAware ADS-B (KINT)
03:51AM 35.7215 -79.5804 184° South 455 524 36,000  Level FlightAware ADS-B (KINT)
03:52AM 35.6453 -79.5864 184° South 455 524 36,000  Level FlightAware ADS-B (KINT)
03:52AM 35.5662 -79.5927 184° South 453 521 36,000  Level FlightAware ADS-B (KINT)
03:53AM 35.4713 -79.6001 184° South 452 520 36,000  Level FlightAware ADS-B (KINT)
03:54AM 35.3882 -79.6066 184° South 452 520 36,000  Level FlightAware ADS-B (KINT)
03:54AM 35.3183 -79.6121 184° South 452 520 36,000  Level FlightAware ADS-B (KINT)
03:55AM 35.2390 -79.6183 184° South 452 520 36,000  Level FlightAware ADS-B (KINT)
03:56AM 35.1367 -79.6263 184° South 455 524 36,000  Level FlightAware ADS-B (KINT)
03:56AM 35.0592 -79.6323 184° South 455 524 36,000  Level FlightAware ADS-B (KINT)
03:57AM 34.9680 -79.6394 184° South 456 525 36,000  Level FlightAware ADS-B (KINT)
03:58AM 34.8944 -79.6451 184° South 456 525 36,000  Level FlightAware ADS-B (KINT)
03:58AM 34.8000 -79.6524 184° South 456 525 36,000  Level FlightAware ADS-B (KINT)
03:59AM 34.6942 -79.6605 184° South 455 524 36,000  Level FlightAware ADS-B (KINT)
04:00AM 34.5927 -79.6683 184° South 455 524 36,000  Level FlightAware ADS-B (KINT)
04:01AM 34.4109 -79.6823 184° South 454 522 36,000  Level FlightAware ADS-B (KINT)
04:02AM 34.3611 -79.6881 184° South 458 527 36,000  Level Jacksonville Center
04:03AM 34.2300 -79.6981 184° South 442 509 36,000  Level Jacksonville Center
04:04AM 34.1050 -79.7075 184° South 442 509 36,000  Level Jacksonville Center
04:05AM 33.9781 -79.7172 184° South 442 509 36,000  Level Jacksonville Center
04:06AM 33.8508 -79.7242 183° South 447 514 36,000 -60 Level Jacksonville Center
04:07AM 33.7258 -79.7336 184° South 452 520 35,900  Descending Jacksonville Center
04:08AM 33.5989 -79.7458 185° South 457 526 36,000  Climbing Jacksonville Center
04:09AM 33.4739 -79.7528 183° South 457 526 35,900  Descending Jacksonville Center
04:10AM 33.3489 -79.7594 183° South 457 526 36,000  Climbing Jacksonville Center
04:11AM 33.2219 -79.7714 185° South 457 526 36,000 -60 Level Jacksonville Center
04:12AM 33.0947 -79.7808 184° South 457 526 35,900  Descending Jacksonville Center
04:13AM 32.9906 -79.7869 183° South 457 526 36,000  Climbing Jacksonville Center
04:19AM 32.8205 -79.8020 184° South 456 525 36,000  Level FlightAware ADS-B (KLHW)
04:20AM 32.0906 -79.8569 184° South 457 526 36,000  Level Jacksonville Center
04:21AM 31.9656 -79.8658 183° South 457 526 36,000  Level Jacksonville Center
04:22AM 31.8361 -79.8750 183° South 457 526 36,000  Level Jacksonville Center
04:23AM 31.7111 -79.8839 183° South 457 526 36,000  Level Jacksonville Center
04:24AM 31.5842 -79.8931 184° South 457 526 36,000 -60 Level Jacksonville Center
04:25AM 31.4569 -79.9019 183° South 457 526 35,900  Descending Jacksonville Center
04:26AM 31.3319 -79.9108 183° South 457 526 36,000  Climbing Jacksonville Center
04:28AM 31.0694 -79.9294 183° South 457 526 35,900 -60 Descending Miami Center
04:29AM 30.9417 -79.9381 183° South 457 526 35,900  Level Miami Center
04:30AM 30.8139 -79.9478 184° South 458 527 36,000  Climbing Miami Center
04:31AM 30.6878 -79.9567 183° South 456 525 35,900 -60 Descending Miami Center
04:32AM 30.5594 -79.9664 184° South 457 526 35,900  Level Miami Center
04:38AM 29.7682 -80.0199 184° South 451 519 36,000  Climbing FlightAware ADS-B (KMCO)
04:39AM 29.6638 -80.0273 184° South 457 526 36,000  Level FlightAware ADS-B (KMCO)
04:39AM 29.6148 -80.0306 183° South 458 527 36,000  Level FlightAware ADS-B (KMCO)
04:40AM 29.4917 -80.0390 183° South 454 522 36,000  Level FlightAware ADS-B (KMCO)
04:41AM 29.4072 -80.0447 184° South 458 527 36,000  Level FlightAware ADS-B (KMCO)
04:42AM 29.3229 -80.0505 183° South 459 528 36,000  Level FlightAware ADS-B (KMCO)
04:43AM 29.1980 -80.0590 184° South 461 531 36,000  Level FlightAware ADS-B (KMCO)
04:43AM 29.1184 -80.0645 184° South 464 534 36,000  Level FlightAware ADS-B (KMCO)
04:44AM 29.0268 -80.0708 183° South 463 533 36,000  Level FlightAware ADS-B (KMCO)
04:44AM 28.9482 -80.0761 184° South 464 534 36,000  Level FlightAware ADS-B (KMCO)
04:45AM 28.8501 -80.0827 184° South 464 534 36,000  Level FlightAware ADS-B (KMCO)
04:46AM 28.7645 -80.0886 184° South 464 534 36,000  Level FlightAware ADS-B (KMCO)
04:47AM 28.6791 -80.0945 183° South 462 532 36,000  Level FlightAware ADS-B (KMCO)
04:47AM 28.5935 -80.1002 183° South 463 533 36,000  Level FlightAware ADS-B (KMCO)
04:48AM 28.5162 -80.1054 183° South 462 532 36,000  Level FlightAware ADS-B (KMCO)
04:49AM 28.4252 -80.1115 184° South 465 535 36,000  Level FlightAware ADS-B (KMCO)
04:49AM 28.3331 -80.1178 184° South 471 542 36,000  Level FlightAware ADS-B (KMCO)
04:50AM 28.2465 -80.1238 184° South 478 550 36,000  Level FlightAware ADS-B (KMCO)
04:51AM 28.1563 -80.1297 183° South 480 552 36,000  Level FlightAware ADS-B (KMCO)
04:51AM 28.0718 -80.1350 183° South 478 550 36,000  Level FlightAware ADS-B (KMCO)
04:52AM 27.9796 -80.1413 184° South 477 549 36,000 -180 Level FlightAware ADS-B (KMCO)
04:53AM 27.8929 -80.1472 184° South 476 548 35,800 -1,200 Descending FlightAware ADS-B (KMCO)
04:53AM 27.8073 -80.1531 184° South 474 545 34,400 -2,640 Descending FlightAware ADS-B (KMCO)
04:54AM 27.7170 -80.1591 183° South 473 544 32,400 -3,240 Descending FlightAware ADS-B (KMCO)
04:55AM 27.6302 -80.1649 183° South 473 544 30,100 -3,540 Descending FlightAware ADS-B (KMCO)
04:55AM 27.5478 -80.1701 183° South 476 548 27,600 -3,780 Descending FlightAware ADS-B (KMCO)
04:56AM 27.4521 -80.1764 183° South 477 549 25,100 -3,480 Descending FlightAware ADS-B (KMCO)
04:56AM 27.3820 -80.1766 179° South 465 535 23,500 -3,000 Descending FlightAware ADS-B (KMCO)
04:58AM 27.2584 -80.1742 179° South 446 513 20,100 -3,060 Descending FlightAware ADS-B (KMCO)
04:58AM 27.1610 -80.1732 180° South 437 503 18,100 -3,000 Descending FlightAware ADS-B (KMCO)
05:00AM 26.9695 -80.1720 180° South 410 472 13,300 -2,940 Descending FlightAware ADS-B (RJTF)
05:00AM 26.9126 -80.1716 180° South 400 460 11,900 -2,040 Descending FlightAware ADS-B (RJTF)
05:01AM 26.8357 -80.1714 180° South 338 389 10,800 -1,320 Descending FlightAware ADS-B (RJTF)
05:02AM 26.7940 -80.1711 180° South 304 350 10,300 -1,380 Descending FlightAware ADS-B (RJTF)
05:02AM 26.7694 -80.1709 179° South 296 341 9,800 -2,220 Descending FlightAware ADS-B (RJTF)
05:02AM 26.7521 -80.1708 179° South 290 334 9,200 -2,220 Descending FlightAware ADS-B (RJTF)
05:02AM 26.7302 -80.1706 180° South 286 329 8,700 -2,040 Descending FlightAware ADS-B (RJTF)
05:03AM 26.7114 -80.1704 180° South 285 328 8,200 -1,620 Descending FlightAware ADS-B (RJTF)
05:03AM 26.6911 -80.1702 179° South 282 325 7,900 -600 Descending FlightAware ADS-B (RJTF)
05:03AM 26.6705 -80.1701 180° South 280 322 7,900  Level FlightAware ADS-B (RJTF)
05:03AM 26.6504 -80.1696 178° South 280 322 7,900  Level FlightAware ADS-B (RJTF)
05:04AM 26.6313 -80.1687 178° South 281 323 7,900  Level FlightAware ADS-B (RJTF)
05:04AM 26.6120 -80.1679 178° South 280 322 7,900  Level FlightAware ADS-B (RJTF)
05:04AM 26.5936 -80.1670 178° South 281 323 7,900  Level FlightAware ADS-B (RJTF)
05:04AM 26.5744 -80.1661 177° South 282 325 7,900  Level FlightAware ADS-B (RJTF)
05:05AM 26.5350 -80.1643 178° South 281 323 7,900  Level FlightAware ADS-B (RJTF)
05:05AM 26.5181 -80.1640 179° South 282 325 7,900 60 Level FlightAware ADS-B (RJTF)
05:06AM 26.4489 -80.1642 179° South 281 323 8,000 -180 Climbing Miami Center
05:07AM 26.3778 -80.1611 178° South 276 318 7,600 -1,020 Descending Miami Center
05:07AM 26.3611 -80.1600 177° South 278 320 6,900 -2,400 Descending Miami Center
05:08AM 26.2867 -80.1556 177° South 269 310 4,700 -1,500 Descending Miami Center
05:09AM 26.2178 -80.1519 177° South 267 307 3,900 -420 Descending Miami Center
05:10AM 26.1550 -80.1747 198° South 252 290 3,900 -60 Level Miami Center
05:11AM 26.1519 -80.2553 268° West 247 284 3,800 -600 Descending Miami Center
05:12AM 26.1517 -80.3247 270° West 245 282 2,700 -1,140 Descending Miami Center
05:13AM 26.1397 -80.3494 242° Southwest 240 276 2,300 -1,200 Descending Miami Center
05:13AM 26.1058 -80.3492 180° South 218 251 1,500 -720 Descending Miami Center
05:14AM 26.0911 -80.3225 122° Southeast 195 224 1,500 -120 Level Miami Center
05:14AM 26.0811 -80.2967 113° Southeast 190 219 1,400  Descending Miami Center
05:14AM 26.0769 -80.2819 107° East 177 204 1,500 -120 Climbing Miami Center
05:15AM 26.0775 -80.2439 89° East 173 199 1,300 -420 Descending Miami Center
05:15AM 26.0761 -80.2286 96° East 166 191 1,100 -840 Descending Miami Center
05:16AM 26.0775 -80.1989 87° East 144 166 500 2,760 Descending Miami Center
05:17AM 26.0769 -80.1572 91° East 129 148 6,000 5,400 Climbing Miami Center
05:19AM 26.0667 -80.1500 167° South  Level FlightAware Approximate